Time,TemperatureF,DewpointF,PressureIn,WindDirection,WindDirectionDegrees,WindSpeedMPH,WindSpeedGustMPH,Humidity,HourlyPrecipIn,Conditions,Clouds,dailyrainin,SoftwareType,DateUTC
2013-02-21 00:00:00,3.0,-6.1,30.40,NNE,22,0.0,0.0,65,0.00,CLR,,0.00,WeatherDisplay:10.37,2013-02-21 06:00:00,
2013-02-21 00:05:00,3.0,-6.2,30.40,NNE,22,0.0,0.0,65,0.00,CLR,,0.00,WeatherDisplay:10.37,2013-02-21 06:05:00,
2013-02-21 00:10:00,2.8,-5.6,30.39,NNE,22,0.0,0.0,67,0.00,CLR,,0.00,WeatherDisplay:10.37,2013-02-21 06:10:00,
2013-02-21 00:15:00,2.8,-5.6,30.39,NNE,26,0.0,0.0,67,0.00,CLR,,0.00,WeatherDisplay:10.37,2013-02-21 06:15:00,
2013-02-21 00:20:00,3.2,-5.0,30.39,NNE,26,0.0,0.0,68,0.00,CLR,,0.00,WeatherDisplay:10.37,2013-02-21 06:20:00,
2013-02-21 00:25:00,3.5,-4.7,30.40,NNE,22,0.0,0.0,68,0.00,CLR,,0.00,WeatherDisplay:10.37,2013-02-21 06:25:00,
2013-02-21 00:30:00,3.6,-4.6,30.40,NNE,22,0.0,0.0,68,0.00,CLR,,0.00,WeatherDisplay:10.37,2013-02-21 06:30:00,
2013-02-21 00:35:00,2.9,-5.6,30.40,NNE,22,0.0,0.0,67,0.00,CLR,,0.00,WeatherDisplay:10.37,2013-02-21 06:35:00,
2013-02-21 00:40:00,2.3,-6.5,30.40,NNE,22,0.0,0.0,66,0.00,CLR,,0.00,WeatherDisplay:10.37,2013-02-21 06:40:00,
2013-02-21 00:45:00,1.2,-7.5,30.40,NNE,22,0.0,0.0,66,0.00,CLR,,0.00,WeatherDisplay:10.37,2013-02-21 06:45:00,
2013-02-21 00:50:00,0.5,-8.2,30.40,NNE,22,0.0,0.0,66,0.00,CLR,,0.00,WeatherDisplay:10.37,2013-02-21 06:50:00,
2013-02-21 00:55:00,0.3,-8.4,30.40,NNE,22,0.0,0.0,66,0.00,CLR,,0.00,WeatherDisplay:10.37,2013-02-21 06:55:00,
2013-02-21 01:00:00,0.0,-8.4,30.40,NNE,22,0.0,0.0,67,0.00,CLR,,0.00,WeatherDisplay:10.37,2013-02-21 07:00:00,
2013-02-21 01:05:00,-0.4,-8.8,30.40,NNE,22,0.0,0.0,67,0.00,CLR,,0.00,WeatherDisplay:10.37,2013-02-21 07:05:00,
2013-02-21 01:10:00,-0.6,-8.6,30.40,NNE,32,0.0,0.0,68,0.00,CLR,,0.00,WeatherDisplay:10.37,2013-02-21 07:10:00,
2013-02-21 01:15:00,-0.2,-8.0,30.39,NE,44,0.0,0.0,69,0.00,CLR,,0.00,WeatherDisplay:10.37,2013-02-21 07:15:00,
2013-02-21 01:20:00,0.5,-7.0,30.40,NE,45,0.0,0.0,70,0.00,CLR,,0.00,WeatherDisplay:10.37,2013-02-21 07:20:00,
2013-02-21 01:25:00,1.2,-6.0,30.40,NE,36,0.0,0.0,71,0.00,CLR,,0.00,WeatherDisplay:10.37,2013-02-21 07:25:00,
2013-02-21 01:30:00,1.9,-5.3,30.40,NNE,30,0.0,0.0,71,0.00,CLR,,0.00,WeatherDisplay:10.37,2013-02-21 07:30:00,
2013-02-21 01:35:00,2.2,-5.1,30.40,NE,39,0.0,0.0,71,0.00,CLR,,0.00,WeatherDisplay:10.37,2013-02-21 07:35:00,
2013-02-21 01:40:00,2.5,-4.8,30.40,NE,45,0.0,0.0,71,0.00,CLR,,0.00,WeatherDisplay:10.37,2013-02-21 07:40:00,
2013-02-21 01:45:00,2.8,-4.4,30.41,NE,45,0.0,0.0,71,0.00,CLR,,0.00,WeatherDisplay:10.37,2013-02-21 07:45:00,
2013-02-21 01:50:00,2.8,-4.4,30.41,NE,45,0.0,0.0,71,0.00,CLR,,0.00,WeatherDisplay:10.37,2013-02-21 07:50:00,
2013-02-21 01:55:00,2.5,-4.8,30.42,NE,45,0.0,0.0,71,0.00,CLR,,0.00,WeatherDisplay:10.37,2013-02-21 07:55:00,
2013-02-21 02:00:00,2.1,-5.1,30.41,NE,45,0.0,0.0,71,0.00,CLR,,0.00,WeatherDisplay:10.37,2013-02-21 08:00:00,
2013-02-21 02:05:00,1.9,-5.7,30.42,NE,45,0.0,0.0,70,0.00,CLR,,0.00,WeatherDisplay:10.37,2013-02-21 08:05:00,
2013-02-21 02:10:00,1.6,-5.7,30.42,NE,45,0.0,0.0,71,0.00,CLR,,0.00,WeatherDisplay:10.37,2013-02-21 08:10:00,
2013-02-21 02:15:00,1.2,-6.0,30.41,NE,45,0.0,0.0,71,0.00,CLR,,0.00,WeatherDisplay:10.37,2013-02-21 08:15:00,
2013-02-21 02:20:00,1.0,-6.2,30.42,NNE,32,0.0,0.0,71,0.00,CLR,,0.00,WeatherDisplay:10.37,2013-02-21 08:20:00,
2013-02-21 02:25:00,0.7,-6.5,30.41,NNE,22,0.0,0.0,71,0.00,CLR,,0.00,WeatherDisplay:10.37,2013-02-21 08:25:00,
2013-02-21 02:30:00,0.3,-7.2,30.41,NNE,22,0.0,0.0,70,0.00,CLR,,0.00,WeatherDisplay:10.37,2013-02-21 08:30:00,
2013-02-21 02:35:00,-0.4,-7.9,30.41,NNE,22,0.0,0.0,70,0.00,CLR,,0.00,WeatherDisplay:10.37,2013-02-21 08:35:00,
2013-02-21 02:40:00,-0.6,-8.0,30.42,NNE,22,0.0,0.0,70,0.00,CLR,,0.00,WeatherDisplay:10.37,2013-02-21 08:40:00,
2013-02-21 02:45:00,-0.7,-7.9,30.42,NNE,22,0.0,0.0,71,0.00,CLR,,0.00,WeatherDisplay:10.37,2013-02-21 08:45:00,
2013-02-21 02:50:00,-0.8,-8.2,30.42,NNE,22,0.0,0.0,70,0.00,CLR,,0.00,WeatherDisplay:10.37,2013-02-21 08:50:00,
2013-02-21 02:55:00,-1.1,-8.3,30.42,NNE,22,0.0,0.0,71,0.00,CLR,,0.00,WeatherDisplay:10.37,2013-02-21 08:55:00,
2013-02-21 03:00:00,-1.1,-8.3,30.42,NNE,22,0.0,0.0,71,0.00,CLR,,0.00,WeatherDisplay:10.37,2013-02-21 09:00:00,
2013-02-21 03:05:00,-1.1,-8.3,30.42,NNE,22,0.0,0.0,71,0.00,CLR,,0.00,WeatherDisplay:10.37,2013-02-21 09:05:00,
2013-02-21 03:10:00,-1.5,-8.6,30.42,NNE,22,0.0,0.0,71,0.00,CLR,,0.00,WeatherDisplay:10.37,2013-02-21 09:10:00,
2013-02-21 03:15:00,-1.7,-8.8,30.42,NNE,22,0.0,0.0,71,0.00,CLR,,0.00,WeatherDisplay:10.37,2013-02-21 09:15:00,
2013-02-21 03:20:00,-1.9,-9.0,30.42,NNE,22,0.0,0.0,71,0.00,CLR,,0.00,WeatherDisplay:10.37,2013-02-21 09:20:00,
2013-02-21 03:25:00,-2.2,-9.3,30.42,NNE,22,0.0,0.0,71,0.00,CLR,,0.00,WeatherDisplay:10.37,2013-02-21 09:25:00,
2013-02-21 03:30:00,-2.4,-9.5,30.42,NNE,22,0.0,0.0,71,0.00,CLR,,0.00,WeatherDisplay:10.37,2013-02-21 09:30:00,
2013-02-21 03:35:00,-2.4,-9.5,30.42,NNE,22,0.0,0.0,71,0.00,CLR,,0.00,WeatherDisplay:10.37,2013-02-21 09:35:00,
2013-02-21 03:40:00,-2.6,-9.7,30.42,NNE,22,0.0,0.0,71,0.00,CLR,,0.00,WeatherDisplay:10.37,2013-02-21 09:40:00,
2013-02-21 03:45:00,-2.8,-9.9,30.42,NNE,22,0.0,0.0,71,0.00,CLR,,0.00,WeatherDisplay:10.37,2013-02-21 09:45:00,
2013-02-21 03:50:00,-2.9,-10.0,30.42,NNE,22,0.0,0.0,71,0.00,CLR,,0.00,WeatherDisplay:10.37,2013-02-21 09:50:00,
2013-02-21 03:55:00,-2.9,-10.0,30.42,NNE,22,0.0,0.0,71,0.00,CLR,,0.00,WeatherDisplay:10.37,2013-02-21 09:55:00,
2013-02-21 04:00:00,-3.1,-10.2,30.42,NNE,22,0.0,0.0,71,0.00,CLR,,0.00,WeatherDisplay:10.37,2013-02-21 10:00:00,
2013-02-21 04:05:00,-3.3,-10.3,30.43,NNE,22,0.0,0.0,71,0.00,CLR,,0.00,WeatherDisplay:10.37,2013-02-21 10:05:00,
2013-02-21 04:10:00,-3.6,-10.7,30.42,NNE,22,0.0,0.0,71,0.00,CLR,,0.00,WeatherDisplay:10.37,2013-02-21 10:10:00,
2013-02-21 04:15:00,-3.8,-10.9,30.42,NNE,22,0.0,0.0,71,0.00,CLR,,0.00,WeatherDisplay:10.37,2013-02-21 10:15:00,
2013-02-21 04:20:00,-3.9,-10.9,30.42,NNE,22,0.0,0.0,71,0.00,CLR,,0.00,WeatherDisplay:10.37,2013-02-21 10:20:00,
2013-02-21 04:25:00,-4.2,-11.2,30.42,NNE,22,0.0,0.0,71,0.00,CLR,,0.00,WeatherDisplay:10.37,2013-02-21 10:25:00,
2013-02-21 04:30:00,-4.7,-12.0,30.43,NNE,22,0.0,0.0,70,0.00,CLR,,0.00,WeatherDisplay:10.37,2013-02-21 10:30:00,
2013-02-21 04:35:00,-4.9,-12.2,30.43,NNE,22,0.0,0.0,70,0.00,CLR,,0.00,WeatherDisplay:10.37,2013-02-21 10:35:00,
2013-02-21 04:40:00,-5.3,-12.5,30.43,NNE,22,0.0,0.0,70,0.00,CLR,,0.00,WeatherDisplay:10.37,2013-02-21 10:40:00,
2013-02-21 04:45:00,-5.6,-12.9,30.43,NNE,22,0.0,0.0,70,0.00,CLR,,0.00,WeatherDisplay:10.37,2013-02-21 10:45:00,
2013-02-21 04:50:00,-6.0,-13.2,30.43,NNE,22,0.0,0.0,70,0.00,CLR,,0.00,WeatherDisplay:10.37,2013-02-21 10:50:00,
2013-02-21 04:55:00,-6.2,-13.4,30.43,NNE,22,0.0,0.0,70,0.00,CLR,,0.00,WeatherDisplay:10.37,2013-02-21 10:55:00,
2013-02-21 05:00:00,-6.2,-13.4,30.43,NNE,22,0.0,0.0,70,0.00,CLR,,0.00,WeatherDisplay:10.37,2013-02-21 11:00:00,
2013-02-21 05:05:00,-6.4,-13.6,30.43,NNE,22,0.0,0.0,70,0.00,CLR,,0.00,WeatherDisplay:10.37,2013-02-21 11:05:00,
2013-02-21 05:10:00,-6.8,-14.0,30.43,NNE,22,0.0,0.0,70,0.00,CLR,,0.00,WeatherDisplay:10.37,2013-02-21 11:10:00,
2013-02-21 05:15:00,-7.1,-14.3,30.43,NNE,22,0.0,0.0,70,0.00,CLR,,0.00,WeatherDisplay:10.37,2013-02-21 11:15:00,
2013-02-21 05:20:00,-7.6,-15.1,30.42,NNE,22,0.0,0.0,69,0.00,CLR,,0.00,WeatherDisplay:10.37,2013-02-21 11:20:00,
2013-02-21 05:25:00,-7.9,-15.4,30.42,NNE,22,0.0,0.0,69,0.00,CLR,,0.00,WeatherDisplay:10.37,2013-02-21 11:25:00,
2013-02-21 05:30:00,-8.0,-15.1,30.42,NNE,22,0.0,0.0,70,0.00,CLR,,0.00,WeatherDisplay:10.37,2013-02-21 11:30:00,
2013-02-21 05:35:00,-7.8,-15.0,30.41,NNE,22,0.0,0.0,70,0.00,CLR,,0.00,WeatherDisplay:10.37,2013-02-21 11:35:00,
2013-02-21 05:40:00,-7.8,-15.0,30.41,NNE,22,0.0,0.0,70,0.00,CLR,,0.00,WeatherDisplay:10.37,2013-02-21 11:40:00,
2013-02-21 05:45:00,-7.8,-15.0,30.41,NNE,22,0.0,0.0,70,0.00,CLR,,0.00,WeatherDisplay:10.37,2013-02-21 11:45:00,
2013-02-21 05:50:00,-7.9,-15.1,30.40,NNE,22,0.0,0.0,70,0.00,CLR,,0.00,WeatherDisplay:10.37,2013-02-21 11:50:00,
2013-02-21 05:55:00,-8.0,-15.1,30.40,NNE,27,0.0,0.0,70,0.00,CLR,,0.00,WeatherDisplay:10.37,2013-02-21 11:55:00,
2013-02-21 06:00:00,-7.8,-14.7,30.39,NE,39,0.0,0.0,71,0.00,CLR,,0.00,WeatherDisplay:10.37,2013-02-21 12:00:00,
2013-02-21 06:05:00,-6.9,-13.5,30.38,NE,39,0.0,6.0,72,0.00,CLR,,0.00,WeatherDisplay:10.37,2013-02-21 12:05:00,
2013-02-21 06:10:00,-4.7,-10.9,30.37,NNE,24,8.0,9.0,74,0.00,CLR,,0.00,WeatherDisplay:10.37,2013-02-21 12:10:00,
2013-02-21 06:15:00,-3.3,-9.2,30.37,NNE,17,5.0,9.0,75,0.00,CLR,,0.00,WeatherDisplay:10.37,2013-02-21 12:15:00,
2013-02-21 06:20:00,-2.4,-8.4,30.36,NNE,17,7.0,7.0,75,0.00,CLR,,0.00,WeatherDisplay:10.37,2013-02-21 12:20:00,
2013-02-21 06:25:00,-1.3,-7.3,30.35,NNE,22,0.0,0.0,75,0.00,CLR,,0.00,WeatherDisplay:10.37,2013-02-21 12:25:00,
2013-02-21 06:30:00,-0.8,-6.8,30.35,NNE,22,2.0,2.0,75,0.00,CLR,,0.00,WeatherDisplay:10.37,2013-02-21 12:30:00,
2013-02-21 06:35:00,-0.4,-6.5,30.35,NNE,26,3.0,7.0,75,0.00,CLR,,0.00,WeatherDisplay:10.37,2013-02-21 12:35:00,
2013-02-21 06:40:00,0.1,-5.9,30.34,NNE,23,3.0,7.0,75,0.00,CLR,,0.00,WeatherDisplay:10.37,2013-02-21 12:40:00,
2013-02-21 06:45:00,0.3,-5.7,30.35,NNE,29,6.0,8.0,75,0.00,CLR,,0.00,WeatherDisplay:10.37,2013-02-21 12:45:00,
2013-02-21 06:50:00,0.3,-5.7,30.34,NNE,29,2.0,7.0,75,0.00,CLR,,0.00,WeatherDisplay:10.37,2013-02-21 12:50:00,
2013-02-21 06:55:00,0.3,-5.7,30.34,NNE,25,0.0,2.0,75,0.00,CLR,,0.00,WeatherDisplay:10.37,2013-02-21 12:55:00,
2013-02-21 07:00:00,0.3,-5.7,30.34,NNE,25,7.0,8.0,75,0.00,CLR,,0.00,WeatherDisplay:10.37,2013-02-21 13:00:00,
2013-02-21 07:05:00,0.3,-5.7,30.36,North,10,0.0,8.0,75,0.00,CLR,,0.00,WeatherDisplay:10.37,2013-02-21 13:05:00,
2013-02-21 07:10:00,0.1,-6.2,30.37,NNE,20,0.0,0.0,74,0.00,CLR,,0.00,WeatherDisplay:10.37,2013-02-21 13:10:00,
2013-02-21 07:15:00,0.0,-6.4,30.39,NE,37,0.0,0.0,74,0.00,CLR,,0.00,WeatherDisplay:10.37,2013-02-21 13:15:00,
2013-02-21 07:20:00,-0.2,-6.5,30.41,NNE,27,0.0,0.0,74,0.00,CLR,,0.00,WeatherDisplay:10.37,2013-02-21 13:20:00,
2013-02-21 07:25:00,-0.6,-7.2,30.42,NNE,22,0.0,0.0,73,0.00,CLR,,0.00,WeatherDisplay:10.37,2013-02-21 13:25:00,
2013-02-21 07:30:00,-0.6,-7.2,30.45,North,360,0.0,0.0,73,0.00,CLR,,0.00,WeatherDisplay:10.37,2013-02-21 13:30:00,
2013-02-21 07:35:00,-0.8,-7.3,30.46,WNW,293,0.0,0.0,73,0.00,CLR,,0.00,WeatherDisplay:10.37,2013-02-21 13:35:00,
2013-02-21 07:40:00,-0.8,-7.3,30.46,West,270,0.0,0.0,73,0.00,CLR,,0.00,WeatherDisplay:10.37,2013-02-21 13:40:00,
2013-02-21 07:45:00,-0.9,-7.5,30.46,West,270,0.0,0.0,73,0.00,CLR,,0.00,WeatherDisplay:10.37,2013-02-21 13:45:00,
2013-02-21 07:50:00,-1.1,-7.7,30.46,West,270,0.0,0.0,73,0.00,CLR,,0.00,WeatherDisplay:10.37,2013-02-21 13:50:00,
2013-02-21 07:55:00,-1.1,-7.7,30.45,West,270,0.0,0.0,73,0.00,CLR,,0.00,WeatherDisplay:10.37,2013-02-21 13:55:00,
2013-02-21 08:00:00,-0.8,-7.3,30.45,West,270,0.0,0.0,73,0.00,CLR,,0.00,WeatherDisplay:10.37,2013-02-21 14:00:00,
2013-02-21 08:05:00,-0.6,-7.2,30.45,West,270,0.0,0.0,73,0.00,CLR,,0.00,WeatherDisplay:10.37,2013-02-21 14:05:00,
2013-02-21 08:10:00,0.1,-6.5,30.44,West,270,0.0,0.0,73,0.00,CLR,,0.00,WeatherDisplay:10.37,2013-02-21 14:10:00,
2013-02-21 08:15:00,0.9,-5.5,30.44,West,270,0.0,0.0,74,0.00,CLR,,0.00,WeatherDisplay:10.37,2013-02-21 14:15:00,
2013-02-21 08:20:00,1.2,-5.1,30.44,West,278,0.0,0.0,74,0.00,CLR,,0.00,WeatherDisplay:10.37,2013-02-21 14:20:00,
2013-02-21 08:25:00,2.3,-4.1,30.44,WNW,289,0.0,0.0,74,0.00,CLR,,0.00,WeatherDisplay:10.37,2013-02-21 14:25:00,
2013-02-21 08:30:00,2.8,-3.6,30.44,NNW,336,0.0,0.0,74,0.00,CLR,,0.00,WeatherDisplay:10.37,2013-02-21 14:30:00,
2013-02-21 08:35:00,3.2,-3.2,30.44,NNE,21,0.0,0.0,74,0.00,CLR,,0.00,WeatherDisplay:10.37,2013-02-21 14:35:00,
2013-02-21 08:40:00,3.9,-2.2,30.44,NNE,22,0.0,0.0,75,0.00,CLR,,0.00,WeatherDisplay:10.37,2013-02-21 14:40:00,
2013-02-21 08:45:00,4.1,-2.1,30.43,NNE,29,0.0,5.0,75,0.00,CLR,,0.00,WeatherDisplay:10.37,2013-02-21 14:45:00,
2013-02-21 08:50:00,4.7,-1.5,30.43,NNE,25,0.0,0.0,75,0.00,CLR,,0.00,WeatherDisplay:10.37,2013-02-21 14:50:00,
2013-02-21 08:55:00,5.2,-1.0,30.42,NNE,16,2.0,4.0,75,0.00,CLR,,0.00,WeatherDisplay:10.37,2013-02-21 14:55:00,
2013-02-21 09:00:00,5.5,-0.7,30.42,NNE,19,0.0,0.0,75,0.00,CLR,,0.00,WeatherDisplay:10.37,2013-02-21 15:00:00,
2013-02-21 09:05:00,5.8,-0.4,30.42,NNE,12,7.0,8.0,75,0.00,CLR,,0.00,WeatherDisplay:10.37,2013-02-21 15:05:00,
2013-02-21 09:10:00,6.1,-0.1,30.43,NNE,16,0.0,0.0,75,0.00,CLR,,0.00,WeatherDisplay:10.37,2013-02-21 15:10:00,
2013-02-21 09:15:00,6.6,0.4,30.43,NE,34,0.0,0.0,75,0.00,CLR,,0.00,WeatherDisplay:10.37,2013-02-21 15:15:00,
2013-02-21 09:20:00,7.0,0.4,30.42,NE,37,5.0,8.0,74,0.00,CLR,,0.00,WeatherDisplay:10.37,2013-02-21 15:20:00,
2013-02-21 09:25:00,7.3,0.8,30.41,NNE,23,8.0,9.0,74,0.00,CLR,,0.00,WeatherDisplay:10.37,2013-02-21 15:25:00,
2013-02-21 09:30:00,7.5,0.7,30.41,NNE,22,3.0,8.0,73,0.00,CLR,,0.00,WeatherDisplay:10.37,2013-02-21 15:30:00,
2013-02-21 09:35:00,8.1,0.9,30.40,NNE,23,8.0,8.0,72,0.00,CLR,,0.00,WeatherDisplay:10.37,2013-02-21 15:35:00,
2013-02-21 09:40:00,8.6,0.8,30.40,NNE,20,8.0,9.0,70,0.00,CLR,,0.00,WeatherDisplay:10.37,2013-02-21 15:40:00,
2013-02-21 09:45:00,9.1,1.0,30.40,NNE,22,8.0,9.0,69,0.00,CLR,,0.00,WeatherDisplay:10.37,2013-02-21 15:45:00,
2013-02-21 09:50:00,9.2,1.1,30.40,NE,41,7.0,9.0,69,0.00,CLR,,0.00,WeatherDisplay:10.37,2013-02-21 15:50:00,
2013-02-21 09:55:00,9.7,1.2,30.39,NE,38,0.0,7.0,68,0.00,CLR,,0.00,WeatherDisplay:10.37,2013-02-21 15:55:00,
2013-02-21 10:00:00,10.2,1.7,30.40,NNE,31,0.0,0.0,68,0.00,CLR,,0.00,WeatherDisplay:10.37,2013-02-21 16:00:00,
2013-02-21 10:05:00,10.9,2.0,30.40,NE,43,1.0,6.0,67,0.00,CLR,,0.00,WeatherDisplay:10.37,2013-02-21 16:05:00,
2013-02-21 10:10:00,11.1,2.3,30.40,NNE,32,0.0,6.0,67,0.00,CLR,,0.00,WeatherDisplay:10.37,2013-02-21 16:10:00,
2013-02-21 10:15:00,11.3,2.1,30.40,NE,39,0.0,1.0,66,0.00,CLR,,0.00,WeatherDisplay:10.37,2013-02-21 16:15:00,
2013-02-21 10:20:00,11.8,2.6,30.40,NE,43,0.0,10.0,66,0.00,CLR,,0.00,WeatherDisplay:10.37,2013-02-21 16:20:00,
2013-02-21 10:25:00,12.0,2.8,30.40,NE,43,0.0,0.0,66,0.00,CLR,,0.00,WeatherDisplay:10.37,2013-02-21 16:25:00,
2013-02-21 10:30:00,12.7,3.2,30.40,NE,48,0.0,0.0,65,0.00,CLR,,0.00,WeatherDisplay:10.37,2013-02-21 16:30:00,
2013-02-21 10:35:00,13.0,3.5,30.39,NE,42,0.0,0.0,65,0.00,CLR,,0.00,WeatherDisplay:10.37,2013-02-21 16:35:00,
2013-02-21 10:40:00,13.8,4.2,30.39,NE,50,0.0,0.0,65,0.00,CLR,,0.00,WeatherDisplay:10.37,2013-02-21 16:40:00,
2013-02-21 10:45:00,14.4,4.4,30.40,ENE,64,0.0,0.0,64,0.00,CLR,,0.00,WeatherDisplay:10.37,2013-02-21 16:45:00,
2013-02-21 10:50:00,14.7,4.0,30.40,NE,47,8.0,8.0,62,0.00,CLR,,0.00,WeatherDisplay:10.37,2013-02-21 16:50:00,
2013-02-21 10:55:00,14.5,3.9,30.40,NE,44,0.0,8.0,62,0.00,CLR,,0.00,WeatherDisplay:10.37,2013-02-21 16:55:00,
2013-02-21 11:00:00,14.7,3.7,30.39,NE,45,8.0,8.0,61,0.00,CLR,,0.00,WeatherDisplay:10.37,2013-02-21 17:00:00,
2013-02-21 11:05:00,14.7,3.3,30.40,NNE,31,12.0,12.0,60,0.00,CLR,,0.00,WeatherDisplay:10.37,2013-02-21 17:05:00,
2013-02-21 11:10:00,15.3,3.8,30.40,NNE,32,6.0,12.0,60,0.00,CLR,,0.00,WeatherDisplay:10.37,2013-02-21 17:10:00,
2013-02-21 11:15:00,16.0,4.9,30.39,NE,47,8.0,8.0,61,0.00,CLR,,0.00,WeatherDisplay:10.37,2013-02-21 17:15:00,
2013-02-21 11:20:00,16.0,4.2,30.39,NNE,25,7.0,9.0,59,0.00,CLR,,0.00,WeatherDisplay:10.37,2013-02-21 17:20:00,
2013-02-21 11:25:00,16.3,4.4,30.39,NNE,27,3.0,9.0,59,0.00,CLR,,0.00,WeatherDisplay:10.37,2013-02-21 17:25:00,
2013-02-21 11:30:00,16.7,4.8,30.39,NE,45,0.0,0.0,59,0.00,CLR,,0.00,WeatherDisplay:10.37,2013-02-21 17:30:00,
2013-02-21 11:35:00,17.5,5.3,30.39,East,87,1.0,5.0,58,0.00,CLR,,0.00,WeatherDisplay:10.37,2013-02-21 17:35:00,
2013-02-21 11:40:00,17.4,4.8,30.38,NNE,29,6.0,9.0,57,0.00,CLR,,0.00,WeatherDisplay:10.37,2013-02-21 17:40:00,
2013-02-21 11:45:00,17.8,5.1,30.39,NNE,21,0.0,0.0,57,0.00,CLR,,0.00,WeatherDisplay:10.37,2013-02-21 17:45:00,
2013-02-21 11:50:00,18.1,5.0,30.38,NNE,16,3.0,5.0,56,0.00,CLR,,0.00,WeatherDisplay:10.37,2013-02-21 17:50:00,
2013-02-21 11:55:00,18.3,5.2,30.38,NNE,24,0.0,0.0,56,0.00,CLR,,0.00,WeatherDisplay:10.37,2013-02-21 17:55:00,
2013-02-21 12:00:00,18.9,5.7,30.38,NE,42,2.0,2.0,56,0.00,CLR,,0.00,WeatherDisplay:10.37,2013-02-21 18:00:00,
2013-02-21 12:05:00,19.0,5.5,30.37,NNE,25,6.0,7.0,55,0.00,CLR,,0.00,WeatherDisplay:10.37,2013-02-21 18:05:00,
2013-02-21 12:10:00,18.9,4.9,30.37,NNE,26,5.0,8.0,54,0.00,CLR,,0.00,WeatherDisplay:10.37,2013-02-21 18:10:00,
2013-02-21 12:15:00,18.9,5.3,30.37,NNE,27,1.0,3.0,55,0.00,CLR,,0.00,WeatherDisplay:10.37,2013-02-21 18:15:00,
2013-02-21 12:20:00,19.0,5.5,30.38,NE,35,8.0,8.0,55,0.00,CLR,,0.00,WeatherDisplay:10.37,2013-02-21 18:20:00,
2013-02-21 12:25:00,19.2,5.3,30.37,NNE,30,5.0,5.0,54,0.00,CLR,,0.00,WeatherDisplay:10.37,2013-02-21 18:25:00,
2013-02-21 12:30:00,19.2,5.3,30.36,NNE,22,8.0,10.0,54,0.00,CLR,,0.00,WeatherDisplay:10.37,2013-02-21 18:30:00,
2013-02-21 12:35:00,19.2,5.7,30.35,NNE,22,6.0,14.0,55,0.00,CLR,,0.00,WeatherDisplay:10.37,2013-02-21 18:35:00,
2013-02-21 12:40:00,19.5,6.0,30.35,NNE,12,9.0,14.0,55,0.00,CLR,,0.00,WeatherDisplay:10.37,2013-02-21 18:40:00,
2013-02-21 12:45:00,19.4,5.5,30.35,NNE,15,8.0,9.0,54,0.00,CLR,,0.00,WeatherDisplay:10.37,2013-02-21 18:45:00,
2013-02-21 12:50:00,19.6,6.0,30.35,NNE,14,9.0,13.0,55,0.00,CLR,,0.00,WeatherDisplay:10.37,2013-02-21 18:50:00,
2013-02-21 12:55:00,19.5,5.5,30.35,North,2,3.0,13.0,54,0.00,CLR,,0.00,WeatherDisplay:10.37,2013-02-21 18:55:00,
2013-02-21 13:00:00,19.4,5.4,30.34,North,8,6.0,8.0,54,0.00,CLR,,0.00,WeatherDisplay:10.37,2013-02-21 19:00:00,
2013-02-21 13:05:00,19.7,6.1,30.34,NNE,18,1.0,14.0,55,0.00,CLR,,0.00,WeatherDisplay:10.37,2013-02-21 19:05:00,
2013-02-21 13:10:00,19.8,5.4,30.33,NNE,20,12.0,14.0,53,0.00,CLR,,0.00,WeatherDisplay:10.37,2013-02-21 19:10:00,
2013-02-21 13:15:00,19.6,5.6,30.33,NNE,28,12.0,14.0,54,0.00,CLR,,0.00,WeatherDisplay:10.37,2013-02-21 19:15:00,
2013-02-21 13:20:00,19.7,5.8,30.33,NNE,28,9.0,14.0,54,0.00,CLR,,0.00,WeatherDisplay:10.37,2013-02-21 19:20:00,
2013-02-21 13:25:00,19.9,5.5,30.32,NNE,27,13.0,13.0,53,0.00,CLR,,0.00,WeatherDisplay:10.37,2013-02-21 19:25:00,
2013-02-21 13:30:00,19.9,5.9,30.32,NNE,30,2.0,13.0,54,0.00,CLR,,0.00,WeatherDisplay:10.37,2013-02-21 19:30:00,
2013-02-21 13:35:00,20.1,5.7,30.31,NNE,21,9.0,9.0,53,0.00,CLR,,0.00,WeatherDisplay:10.37,2013-02-21 19:35:00,
2013-02-21 13:40:00,20.7,6.6,30.31,North,2,12.0,14.0,54,0.00,CLR,,0.00,WeatherDisplay:10.37,2013-02-21 19:40:00,
2013-02-21 13:45:00,20.8,6.4,30.31,NNE,13,3.0,10.0,53,0.00,CLR,,0.00,WeatherDisplay:10.37,2013-02-21 19:45:00,
2013-02-21 13:50:00,20.8,6.4,30.31,NNE,28,8.0,15.0,53,0.00,CLR,,0.00,WeatherDisplay:10.37,2013-02-21 19:50:00,
2013-02-21 13:55:00,21.0,6.5,30.31,NNE,31,8.0,9.0,53,0.00,CLR,,0.00,WeatherDisplay:10.37,2013-02-21 19:55:00,
2013-02-21 14:00:00,21.4,6.9,30.30,NNE,33,8.0,9.0,53,0.00,CLR,,0.00,WeatherDisplay:10.37,2013-02-21 20:00:00,
2013-02-21 14:05:00,21.9,7.4,30.30,NE,36,0.0,8.0,53,0.00,CLR,,0.00,WeatherDisplay:10.37,2013-02-21 20:05:00,
2013-02-21 14:10:00,22.3,7.3,30.30,NE,38,6.0,7.0,52,0.00,CLR,,0.00,WeatherDisplay:10.37,2013-02-21 20:10:00,
2013-02-21 14:15:00,22.1,7.1,30.30,NE,41,0.0,7.0,52,0.00,CLR,,0.00,WeatherDisplay:10.37,2013-02-21 20:15:00,
2013-02-21 14:20:00,22.3,7.3,30.30,ENE,63,8.0,8.0,52,0.00,CLR,,0.00,WeatherDisplay:10.37,2013-02-21 20:20:00,
2013-02-21 14:25:00,22.8,7.8,30.30,ENE,77,0.0,0.0,52,0.00,CLR,,0.00,WeatherDisplay:10.37,2013-02-21 20:25:00,
2013-02-21 14:30:00,23.2,8.2,30.29,NE,51,0.0,0.0,52,0.00,CLR,,0.00,WeatherDisplay:10.37,2013-02-21 20:30:00,
2013-02-21 14:35:00,23.5,8.0,30.29,ENE,62,0.0,0.0,51,0.00,CLR,,0.00,WeatherDisplay:10.37,2013-02-21 20:35:00,
2013-02-21 14:40:00,23.5,8.0,30.29,NNE,30,9.0,13.0,51,0.00,CLR,,0.00,WeatherDisplay:10.37,2013-02-21 20:40:00,
2013-02-21 14:45:00,23.5,8.0,30.29,NNE,31,6.0,9.0,51,0.00,CLR,,0.00,WeatherDisplay:10.37,2013-02-21 20:45:00,
2013-02-21 14:50:00,23.8,7.8,30.29,NE,34,5.0,6.0,50,0.00,CLR,,0.00,WeatherDisplay:10.37,2013-02-21 20:50:00,
2013-02-21 14:55:00,24.1,8.5,30.29,NNE,26,3.0,5.0,51,0.00,CLR,,0.00,WeatherDisplay:10.37,2013-02-21 20:55:00,
2013-02-21 15:00:00,24.5,8.9,30.29,NNE,33,1.0,5.0,51,0.00,CLR,,0.00,WeatherDisplay:10.37,2013-02-21 21:00:00,
2013-02-21 15:05:00,25.0,9.4,30.29,NNE,32,0.0,0.0,51,0.00,CLR,,0.00,WeatherDisplay:10.37,2013-02-21 21:05:00,
2013-02-21 15:10:00,25.2,9.1,30.29,NE,40,0.0,0.0,50,0.00,CLR,,0.00,WeatherDisplay:10.37,2013-02-21 21:10:00,
2013-02-21 15:15:00,25.0,8.9,30.29,ENE,70,0.0,0.0,50,0.00,CLR,,0.00,WeatherDisplay:10.37,2013-02-21 21:15:00,
2013-02-21 15:20:00,25.0,8.9,30.29,ENE,57,5.0,7.0,50,0.00,CLR,,0.00,WeatherDisplay:10.37,2013-02-21 21:20:00,
2013-02-21 15:25:00,25.0,8.5,30.29,ENE,72,2.0,5.0,49,0.00,CLR,,0.00,WeatherDisplay:10.37,2013-02-21 21:25:00,
2013-02-21 15:30:00,24.6,8.6,30.29,ENE,61,8.0,8.0,50,0.00,CLR,,0.00,WeatherDisplay:10.37,2013-02-21 21:30:00,
2013-02-21 15:35:00,24.4,8.4,30.28,ENE,60,3.0,5.0,50,0.00,CLR,,0.00,WeatherDisplay:10.37,2013-02-21 21:35:00,
2013-02-21 15:40:00,24.4,8.4,30.28,ENE,64,0.0,0.0,50,0.00,CLR,,0.00,WeatherDisplay:10.37,2013-02-21 21:40:00,
2013-02-21 15:45:00,24.4,8.4,30.28,NE,46,8.0,8.0,50,0.00,CLR,,0.00,WeatherDisplay:10.37,2013-02-21 21:45:00,
2013-02-21 15:50:00,24.1,8.1,30.27,NNE,32,12.0,13.0,50,0.00,CLR,,0.00,WeatherDisplay:10.37,2013-02-21 21:50:00,
2013-02-21 15:55:00,23.7,7.8,30.27,NNE,30,7.0,10.0,50,0.00,CLR,,0.00,WeatherDisplay:10.37,2013-02-21 21:55:00,
2013-02-21 16:00:00,23.7,7.8,30.27,NE,35,0.0,8.0,50,0.00,CLR,,0.00,WeatherDisplay:10.37,2013-02-21 22:00:00,
2013-02-21 16:05:00,23.9,8.4,30.27,NE,43,0.0,2.0,51,0.00,CLR,,0.00,WeatherDisplay:10.37,2013-02-21 22:05:00,
2013-02-21 16:10:00,23.7,7.8,30.27,NNE,25,5.0,10.0,50,0.00,CLR,,0.00,WeatherDisplay:10.37,2013-02-21 22:10:00,
2013-02-21 16:15:00,23.7,8.2,30.27,NNE,24,6.0,6.0,51,0.00,CLR,,0.00,WeatherDisplay:10.37,2013-02-21 22:15:00,
2013-02-21 16:20:00,23.6,8.1,30.26,NNE,31,1.0,11.0,51,0.00,CLR,,0.00,WeatherDisplay:10.37,2013-02-21 22:20:00,
2013-02-21 16:25:00,23.5,8.0,30.26,NNE,26,6.0,11.0,51,0.00,CLR,,0.00,WeatherDisplay:10.37,2013-02-21 22:25:00,
2013-02-21 16:30:00,23.4,8.3,30.26,NNE,32,0.0,9.0,52,0.00,CLR,,0.00,WeatherDisplay:10.37,2013-02-21 22:30:00,
2013-02-21 16:35:00,23.5,8.5,30.26,NE,44,1.0,7.0,52,0.00,CLR,,0.00,WeatherDisplay:10.37,2013-02-21 22:35:00,
2013-02-21 16:40:00,23.4,8.7,30.26,ENE,63,0.0,7.0,53,0.00,CLR,,0.00,WeatherDisplay:10.37,2013-02-21 22:40:00,
2013-02-21 16:45:00,23.4,8.7,30.26,ENE,61,0.0,0.0,53,0.00,CLR,,0.00,WeatherDisplay:10.37,2013-02-21 22:45:00,
2013-02-21 16:50:00,23.2,8.6,30.26,NE,52,0.0,0.0,53,0.00,CLR,,0.00,WeatherDisplay:10.37,2013-02-21 22:50:00,
2013-02-21 16:55:00,23.2,9.0,30.26,NE,54,6.0,8.0,54,0.00,CLR,,0.00,WeatherDisplay:10.37,2013-02-21 22:55:00,
2013-02-21 17:00:00,23.0,8.8,30.25,NE,43,2.0,8.0,54,0.00,CLR,,0.00,WeatherDisplay:10.37,2013-02-21 23:00:00,
2013-02-21 17:05:00,23.0,8.8,30.25,NE,44,0.0,2.0,54,0.00,CLR,,0.00,WeatherDisplay:10.37,2013-02-21 23:05:00,
2013-02-21 17:10:00,22.8,8.6,30.25,NE,48,0.0,2.0,54,0.00,CLR,,0.00,WeatherDisplay:10.37,2013-02-21 23:10:00,
2013-02-21 17:15:00,22.8,8.6,30.24,NE,41,0.0,0.0,54,0.00,CLR,,0.00,WeatherDisplay:10.37,2013-02-21 23:15:00,
2013-02-21 17:20:00,22.6,8.9,30.24,NE,43,3.0,5.0,55,0.00,CLR,,0.00,WeatherDisplay:10.37,2013-02-21 23:20:00,
2013-02-21 17:25:00,22.5,8.7,30.23,NE,41,0.0,0.0,55,0.00,CLR,,0.00,WeatherDisplay:10.37,2013-02-21 23:25:00,
2013-02-21 17:30:00,22.4,8.7,30.23,NNE,22,0.0,6.0,55,0.00,CLR,,0.00,WeatherDisplay:10.37,2013-02-21 23:30:00,
2013-02-21 17:35:00,22.3,8.5,30.23,NNE,29,6.0,8.0,55,0.00,CLR,,0.00,WeatherDisplay:10.37,2013-02-21 23:35:00,
2013-02-21 17:40:00,22.3,8.5,30.23,NE,35,7.0,8.0,55,0.00,CLR,,0.00,WeatherDisplay:10.37,2013-02-21 23:40:00,
2013-02-21 17:45:00,22.3,8.9,30.22,NE,39,0.0,7.0,56,0.00,CLR,,0.00,WeatherDisplay:10.37,2013-02-21 23:45:00,
2013-02-21 17:50:00,22.1,8.8,30.21,NE,37,0.0,0.0,56,0.00,CLR,,0.00,WeatherDisplay:10.37,2013-02-21 23:50:00,
2013-02-21 17:55:00,21.9,8.6,30.21,NNE,26,2.0,5.0,56,0.00,CLR,,0.00,WeatherDisplay:10.37,2013-02-21 23:55:00,
2013-02-21 18:00:00,21.9,9.0,30.21,NNE,22,3.0,9.0,57,0.00,CLR,,0.00,WeatherDisplay:10.37,2013-02-22 00:00:00,
2013-02-21 18:05:00,21.9,9.0,30.21,NNE,22,1.0,6.0,57,0.00,CLR,,0.00,WeatherDisplay:10.37,2013-02-22 00:05:00,
2013-02-21 18:10:00,21.9,9.0,30.21,NNE,28,0.0,6.0,57,0.00,CLR,,0.00,WeatherDisplay:10.37,2013-02-22 00:10:00,
2013-02-21 18:15:00,21.7,8.8,30.21,NNE,32,0.0,0.0,57,0.00,CLR,,0.00,WeatherDisplay:10.37,2013-02-22 00:15:00,
2013-02-21 18:25:00,21.7,8.8,30.21,NNE,22,0.0,0.0,57,0.00,CLR,,0.00,WeatherDisplay:10.37,2013-02-22 00:25:00,
2013-02-21 18:30:00,21.7,8.8,30.21,NNE,28,0.0,0.0,57,0.00,CLR,,0.00,WeatherDisplay:10.37,2013-02-22 00:30:00,
2013-02-21 18:35:00,21.7,9.2,30.21,NNE,26,2.0,3.0,58,0.00,CLR,,0.00,WeatherDisplay:10.37,2013-02-22 00:35:00,
2013-02-21 18:40:00,21.9,9.4,30.20,NNE,22,0.0,0.0,58,0.00,CLR,,0.00,WeatherDisplay:10.37,2013-02-22 00:40:00,
2013-02-21 18:45:00,21.9,9.4,30.20,NNE,29,5.0,10.0,58,0.00,CLR,,0.00,WeatherDisplay:10.37,2013-02-22 00:45:00,
2013-02-21 18:50:00,22.1,9.5,30.20,NNE,24,0.0,10.0,58,0.00,CLR,,0.00,WeatherDisplay:10.37,2013-02-22 00:50:00,
2013-02-21 18:55:00,22.1,9.6,30.19,NNE,14,10.0,12.0,58,0.00,CLR,,0.00,WeatherDisplay:10.37,2013-02-22 00:55:00,
2013-02-21 19:00:00,22.5,9.9,30.19,NNE,15,10.0,12.0,58,0.00,CLR,,0.00,WeatherDisplay:10.37,2013-02-22 01:00:00,
2013-02-21 19:05:00,22.6,10.4,30.19,NNE,21,9.0,13.0,59,0.00,CLR,,0.00,WeatherDisplay:10.37,2013-02-22 01:05:00,
2013-02-21 19:10:00,22.8,10.6,30.19,NNE,16,6.0,13.0,59,0.00,CLR,,0.00,WeatherDisplay:10.37,2013-02-22 01:10:00,
2013-02-21 19:15:00,22.8,11.0,30.19,NNE,19,0.0,9.0,60,0.00,CLR,,0.00,WeatherDisplay:10.37,2013-02-22 01:15:00,
2013-02-21 19:20:00,22.9,11.5,30.18,NNE,32,5.0,9.0,61,0.00,CLR,,0.00,WeatherDisplay:10.37,2013-02-22 01:20:00,
2013-02-21 19:25:00,23.2,11.7,30.18,NE,52,0.0,9.0,61,0.00,CLR,,0.00,WeatherDisplay:10.37,2013-02-22 01:25:00,
2013-02-21 19:30:00,23.2,11.7,30.18,NE,51,9.0,9.0,61,0.00,CLR,,0.00,WeatherDisplay:10.37,2013-02-22 01:30:00,
2013-02-21 19:35:00,23.2,12.1,30.18,NNE,33,3.0,9.0,62,0.00,CLR,,0.00,WeatherDisplay:10.37,2013-02-22 01:35:00,
2013-02-21 19:40:00,23.2,12.1,30.18,NNE,30,12.0,15.0,62,0.00,CLR,,0.00,WeatherDisplay:10.37,2013-02-22 01:40:00,
2013-02-21 19:45:00,23.2,12.1,30.18,NE,48,8.0,15.0,62,0.00,CLR,,0.00,WeatherDisplay:10.37,2013-02-22 01:45:00,
2013-02-21 19:50:00,23.0,12.3,30.18,NE,46,6.0,8.0,63,0.00,CLR,,0.00,WeatherDisplay:10.37,2013-02-22 01:50:00,
2013-02-21 19:55:00,22.8,12.1,30.18,NE,40,8.0,9.0,63,0.00,CLR,,0.00,WeatherDisplay:10.37,2013-02-22 01:55:00,
2013-02-21 20:00:00,22.8,12.5,30.17,NE,36,13.0,16.0,64,0.00,CLR,,0.00,WeatherDisplay:10.37,2013-02-22 02:00:00,
2013-02-21 20:05:00,22.8,12.4,30.18,NE,34,16.0,16.0,64,0.00,CLR,,0.00,WeatherDisplay:10.37,2013-02-22 02:05:00,
2013-02-21 20:10:00,22.5,12.1,30.18,NE,39,0.0,12.0,64,0.00,CLR,,0.00,WeatherDisplay:10.37,2013-02-22 02:10:00,
2013-02-21 20:15:00,22.4,12.0,30.18,NE,34,14.0,14.0,64,0.00,CLR,,0.00,WeatherDisplay:10.37,2013-02-22 02:15:00,
2013-02-21 20:20:00,22.3,12.3,30.17,NNE,29,12.0,12.0,65,0.00,CLR,,0.00,WeatherDisplay:10.37,2013-02-22 02:20:00,
2013-02-21 20:25:00,22.1,12.5,30.18,NNE,32,18.0,20.0,66,0.00,CLR,,0.00,WeatherDisplay:10.37,2013-02-22 02:25:00,
2013-02-21 20:30:00,21.9,12.2,30.18,NE,41,8.0,20.0,66,0.00,CLR,,0.00,WeatherDisplay:10.37,2013-02-22 02:30:00,
2013-02-21 20:35:00,21.7,12.7,30.18,NE,43,7.0,9.0,68,0.00,CLR,,0.00,WeatherDisplay:10.37,2013-02-22 02:35:00,
2013-02-21 20:40:00,21.4,12.5,30.17,NE,45,3.0,9.0,68,0.00,CLR,,0.00,WeatherDisplay:10.37,2013-02-22 02:40:00,
2013-02-21 20:45:00,21.4,12.8,30.17,NE,54,10.0,11.0,69,0.00,CLR,,0.00,WeatherDisplay:10.37,2013-02-22 02:45:00,
2013-02-21 20:50:00,21.2,12.9,30.17,ENE,67,0.0,3.0,70,0.00,CLR,,0.00,WeatherDisplay:10.37,2013-02-22 02:50:00,
2013-02-21 20:55:00,21.0,12.8,30.17,NNE,24,16.0,17.0,70,0.00,CLR,,0.00,WeatherDisplay:10.37,2013-02-22 02:55:00,
2013-02-21 21:00:00,21.0,13.1,30.16,NNE,21,12.0,17.0,71,0.00,CLR,,0.00,WeatherDisplay:10.37,2013-02-22 03:00:00,
2013-02-21 21:05:00,21.0,13.1,30.16,NNE,23,18.0,22.0,71,0.00,CLR,,0.00,WeatherDisplay:10.37,2013-02-22 03:05:00,
2013-02-21 21:10:00,21.0,13.1,30.16,NNE,25,9.0,16.0,71,0.00,CLR,,0.00,WeatherDisplay:10.37,2013-02-22 03:10:00,
2013-02-21 21:15:00,20.8,13.2,30.16,NE,35,13.0,14.0,72,0.00,CLR,,0.00,WeatherDisplay:10.37,2013-02-22 03:15:00,
2013-02-21 21:20:00,20.8,13.2,30.16,NE,39,8.0,9.0,72,0.00,CLR,,0.00,WeatherDisplay:10.37,2013-02-22 03:20:00,
2013-02-21 21:25:00,20.8,13.2,30.16,NNE,30,7.0,8.0,72,0.00,CLR,,0.00,WeatherDisplay:10.37,2013-02-22 03:25:00,
2013-02-21 21:30:00,20.8,13.5,30.16,NE,36,12.0,12.0,73,0.00,CLR,,0.00,WeatherDisplay:10.37,2013-02-22 03:30:00,
2013-02-21 21:35:00,20.8,13.5,30.16,NE,39,10.0,13.0,73,0.00,CLR,,0.00,WeatherDisplay:10.37,2013-02-22 03:35:00,
2013-02-21 21:40:00,20.8,13.5,30.15,NNE,25,8.0,13.0,73,0.00,CLR,,0.00,WeatherDisplay:10.37,2013-02-22 03:40:00,
2013-02-21 21:45:00,20.8,13.5,30.15,NNE,27,7.0,9.0,73,0.00,CLR,,0.00,WeatherDisplay:10.37,2013-02-22 03:45:00,
2013-02-21 21:50:00,20.8,13.5,30.15,NNE,33,2.0,7.0,73,0.00,CLR,,0.00,WeatherDisplay:10.37,2013-02-22 03:50:00,
2013-02-21 21:55:00,20.8,13.9,30.15,NNE,30,9.0,9.0,74,0.00,CLR,,0.00,WeatherDisplay:10.37,2013-02-22 03:55:00,
2013-02-21 22:00:00,20.8,13.9,30.15,NNE,29,9.0,9.0,74,0.00,CLR,,0.00,WeatherDisplay:10.37,2013-02-22 04:00:00,
2013-02-21 22:05:00,20.8,13.9,30.15,NNE,31,0.0,9.0,74,0.00,CLR,,0.00,WeatherDisplay:10.37,2013-02-22 04:05:00,
2013-02-21 22:10:00,20.8,13.9,30.15,NE,42,6.0,8.0,74,0.00,CLR,,0.00,WeatherDisplay:10.37,2013-02-22 04:10:00,
2013-02-21 22:15:00,20.8,13.9,30.15,NE,38,0.0,0.0,74,0.00,CLR,,0.00,WeatherDisplay:10.37,2013-02-22 04:15:00,
2013-02-21 22:20:00,20.8,13.9,30.15,NE,37,1.0,3.0,74,0.00,CLR,,0.00,WeatherDisplay:10.37,2013-02-22 04:20:00,
2013-02-21 22:25:00,20.8,13.9,30.14,NE,38,8.0,8.0,74,0.00,CLR,,0.00,WeatherDisplay:10.37,2013-02-22 04:25:00,
2013-02-21 22:30:00,20.8,13.9,30.14,NE,39,8.0,9.0,74,0.00,CLR,,0.00,WeatherDisplay:10.37,2013-02-22 04:30:00,
2013-02-21 22:35:00,20.8,13.9,30.14,NE,42,2.0,7.0,74,0.00,CLR,,0.00,WeatherDisplay:10.37,2013-02-22 04:35:00,
2013-02-21 22:40:00,20.8,14.2,30.14,NNE,30,1.0,7.0,75,0.00,CLR,,0.00,WeatherDisplay:10.37,2013-02-22 04:40:00,
2013-02-21 22:45:00,20.8,14.2,30.13,NNE,31,0.0,10.0,75,0.00,CLR,,0.00,WeatherDisplay:10.37,2013-02-22 04:45:00,
2013-02-21 22:50:00,20.8,14.2,30.13,NE,35,5.0,6.0,75,0.00,CLR,,0.00,WeatherDisplay:10.37,2013-02-22 04:50:00,
2013-02-21 22:55:00,20.8,14.2,30.13,NNE,30,14.0,16.0,75,0.00,CLR,,0.00,WeatherDisplay:10.37,2013-02-22 04:55:00,
2013-02-21 23:00:00,20.8,14.2,30.13,NNE,26,0.0,16.0,75,0.00,CLR,,0.00,WeatherDisplay:10.37,2013-02-22 05:00:00,
2013-02-21 23:10:00,21.0,14.3,30.12,NNE,29,6.0,7.0,75,0.00,CLR,,0.00,WeatherDisplay:10.37,2013-02-22 05:10:00,
2013-02-21 23:15:00,21.0,14.3,30.12,NNE,33,8.0,9.0,75,0.00,CLR,,0.00,WeatherDisplay:10.37,2013-02-22 05:15:00,
2013-02-21 23:20:00,21.0,14.3,30.12,NNE,33,0.0,8.0,75,0.00,CLR,,0.00,WeatherDisplay:10.37,2013-02-22 05:20:00,
2013-02-21 23:25:00,21.0,14.3,30.11,NNE,23,2.0,9.0,75,0.00,CLR,,0.00,WeatherDisplay:10.37,2013-02-22 05:25:00,
2013-02-21 23:30:00,21.0,14.3,30.11,NNE,21,8.0,13.0,75,0.00,CLR,,0.00,WeatherDisplay:10.37,2013-02-22 05:30:00,
2013-02-21 23:35:00,21.0,14.3,30.12,NE,35,8.0,9.0,75,0.00,CLR,,0.00,WeatherDisplay:10.37,2013-02-22 05:35:00,
2013-02-21 23:40:00,21.0,14.3,30.11,NE,49,1.0,8.0,75,0.00,CLR,,0.00,WeatherDisplay:10.37,2013-02-22 05:40:00,
2013-02-21 23:45:00,20.8,14.2,30.11,NE,51,0.0,6.0,75,0.00,CLR,,0.00,WeatherDisplay:10.37,2013-02-22 05:45:00,
2013-02-21 23:50:00,20.8,14.2,30.11,NE,39,7.0,9.0,75,0.00,CLR,,0.00,WeatherDisplay:10.37,2013-02-22 05:50:00,
2013-02-21 23:55:00,20.8,14.2,30.11,NE,42,9.0,9.0,75,0.00,CLR,,0.00,WeatherDisplay:10.37,2013-02-22 05:55:00,